Time,TemperatureF,DewpointF,PressureIn,WindDirection,WindDirectionDegrees,WindSpeedMPH,WindSpeedGustMPH,Humidity,HourlyPrecipIn,Conditions,Clouds,dailyrainin,SoftwareType,DateUTC
2013-05-28 00:01:00,56.0,40.0,-100.00,SSE,162,6.0,12.0,55,-99.99,,,-99.99,,2013-05-28 07:01:00,
2013-05-28 00:11:00,56.0,40.0,-100.00,SSE,164,6.0,13.0,54,-99.99,,,-99.99,,2013-05-28 07:11:00,
2013-05-28 00:21:00,56.0,40.0,-100.00,South,174,6.0,12.0,55,-99.99,,,-99.99,,2013-05-28 07:21:00,
2013-05-28 00:32:00,54.0,41.0,-100.00,WSW,243,3.0,11.0,61,-99.99,,,-99.99,,2013-05-28 07:32:00,
2013-05-28 00:42:00,54.0,41.0,-100.00,WSW,243,3.0,11.0,61,-99.99,,,-99.99,,2013-05-28 07:42:00,
2013-05-28 00:52:00,54.0,42.0,-100.00,NNE,18,3.0,7.0,64,-99.99,,,-99.99,,2013-05-28 07:52:00,
2013-05-28 01:02:00,54.0,41.0,-100.00,North,8,3.0,7.0,61,-99.99,,,-99.99,,2013-05-28 08:02:00,
2013-05-28 01:11:00,54.0,43.0,-100.00,ENE,65,2.0,6.0,65,-99.99,,,-99.99,,2013-05-28 08:11:00,
2013-05-28 01:21:00,53.0,43.0,-100.00,WNW,296,2.0,6.0,67,-99.99,,,-99.99,,2013-05-28 08:21:00,
2013-05-28 01:32:00,53.0,43.0,-100.00,North,0,3.0,7.0,70,-99.99,,,-99.99,,2013-05-28 08:32:00,
2013-05-28 01:42:00,53.0,44.0,-100.00,North,359,3.0,6.0,71,-99.99,,,-99.99,,2013-05-28 08:42:00,
2013-05-28 01:51:00,53.0,43.0,-100.00,North,8,5.0,11.0,68,-99.99,,,-99.99,,2013-05-28 08:51:00,
2013-05-28 02:01:00,53.0,43.0,-100.00,North,10,5.0,11.0,69,-99.99,,,-99.99,,2013-05-28 09:01:00,
2013-05-28 02:11:00,52.0,44.0,-100.00,North,8,4.0,7.0,73,-99.99,,,-99.99,,2013-05-28 09:11:00,
2013-05-28 02:21:00,51.0,43.0,-100.00,NNE,18,4.0,8.0,74,-99.99,,,-99.99,,2013-05-28 09:21:00,
2013-05-28 02:33:00,52.0,42.0,-100.00,NNE,13,3.0,6.0,69,-99.99,,,-99.99,,2013-05-28 09:33:00,
2013-05-28 02:42:00,53.0,43.0,-100.00,North,4,3.0,6.0,69,-99.99,,,-99.99,,2013-05-28 09:42:00,
2013-05-28 02:53:00,52.0,44.0,-100.00,North,1,3.0,6.0,74,-99.99,,,-99.99,,2013-05-28 09:53:00,
2013-05-28 03:02:00,52.0,44.0,-100.00,North,1,3.0,6.0,74,-99.99,,,-99.99,,2013-05-28 10:02:00,
2013-05-28 03:12:00,52.0,44.0,-100.00,North,1,3.0,6.0,74,-99.99,,,-99.99,,2013-05-28 10:12:00,
2013-05-28 03:22:00,51.0,44.0,-100.00,North,6,2.0,6.0,77,-99.99,,,-99.99,,2013-05-28 10:22:00,
2013-05-28 03:32:00,51.0,43.0,-100.00,NNE,31,5.0,10.0,75,-99.99,,,-99.99,,2013-05-28 10:32:00,
2013-05-28 03:42:00,51.0,43.0,-100.00,NNE,31,5.0,10.0,75,-99.99,,,-99.99,,2013-05-28 10:42:00,
2013-05-28 03:53:00,51.0,43.0,-100.00,NNE,31,5.0,10.0,75,-99.99,,,-99.99,,2013-05-28 10:53:00,
2013-05-28 04:02:00,52.0,44.0,-100.00,NE,52,2.0,5.0,74,-99.99,,,-99.99,,2013-05-28 11:02:00,
2013-05-28 04:11:00,52.0,44.0,-100.00,NE,52,2.0,5.0,74,-99.99,,,-99.99,,2013-05-28 11:11:00,
2013-05-28 04:22:00,52.0,44.0,-100.00,ENE,59,1.0,3.0,74,-99.99,,,-99.99,,2013-05-28 11:22:00,
2013-05-28 04:32:00,52.0,43.0,-100.00,NNW,339,3.0,7.0,71,-99.99,,,-99.99,,2013-05-28 11:32:00,
2013-05-28 04:41:00,52.0,43.0,-100.00,NNW,339,3.0,7.0,71,-99.99,,,-99.99,,2013-05-28 11:41:00,
2013-05-28 04:52:00,52.0,43.0,-100.00,NNW,339,3.0,7.0,71,-99.99,,,-99.99,,2013-05-28 11:52:00,
2013-05-28 05:01:00,52.0,44.0,-100.00,North,4,4.0,7.0,75,-99.99,,,-99.99,,2013-05-28 12:01:00,
2013-05-28 05:11:00,52.0,44.0,-100.00,North,4,4.0,7.0,75,-99.99,,,-99.99,,2013-05-28 12:11:00,
2013-05-28 05:21:00,52.0,45.0,-100.00,North,6,7.0,13.0,76,-99.99,,,-99.99,,2013-05-28 12:21:00,
2013-05-28 05:31:00,53.0,41.0,-100.00,NNW,335,6.0,12.0,63,-99.99,,,-99.99,,2013-05-28 12:31:00,
2013-05-28 05:42:00,53.0,41.0,-100.00,NNW,335,6.0,12.0,63,-99.99,,,-99.99,,2013-05-28 12:42:00,
2013-05-28 05:52:00,53.0,41.0,-100.00,NNW,335,6.0,12.0,63,-99.99,,,-99.99,,2013-05-28 12:52:00,
2013-05-28 06:01:00,52.0,42.0,-100.00,NNW,342,6.0,14.0,69,-99.99,,,-99.99,,2013-05-28 13:01:00,
2013-05-28 06:11:00,52.0,42.0,-100.00,NNW,342,6.0,14.0,69,-99.99,,,-99.99,,2013-05-28 13:11:00,
2013-05-28 06:21:00,52.0,41.0,-100.00,North,352,4.0,11.0,65,-99.99,,,-99.99,,2013-05-28 13:21:00,
2013-05-28 06:32:00,53.0,40.0,-100.00,NNW,347,4.0,10.0,61,-99.99,,,-99.99,,2013-05-28 13:32:00,
2013-05-28 06:42:00,54.0,40.0,-100.00,NNW,340,5.0,10.0,58,-99.99,,,-99.99,,2013-05-28 13:42:00,
2013-05-28 06:52:00,54.0,40.0,-100.00,NNW,340,5.0,10.0,58,-99.99,,,-99.99,,2013-05-28 13:52:00,
2013-05-28 07:01:00,53.0,39.0,-100.00,NW,326,9.0,18.0,59,-99.99,,,-99.99,,2013-05-28 14:01:00,
2013-05-28 07:11:00,54.0,40.0,-100.00,NNW,332,10.0,16.0,58,-99.99,,,-99.99,,2013-05-28 14:11:00,
2013-05-28 07:21:00,54.0,39.0,-100.00,NW,320,12.0,18.0,58,-99.99,,,-99.99,,2013-05-28 14:21:00,
2013-05-28 07:32:00,55.0,38.0,-100.00,NW,305,10.0,22.0,54,-99.99,,,-99.99,,2013-05-28 14:32:00,
2013-05-28 07:41:00,55.0,38.0,-100.00,NW,305,10.0,22.0,54,-99.99,,,-99.99,,2013-05-28 14:41:00,
2013-05-28 07:52:00,55.0,41.0,-100.00,WNW,298,11.0,19.0,58,-99.99,,,-99.99,,2013-05-28 14:52:00,
2013-05-28 08:01:00,55.0,39.0,-100.00,WNW,288,12.0,18.0,54,-99.99,,,-99.99,,2013-05-28 15:01:00,
2013-05-28 08:11:00,56.0,38.0,-100.00,West,281,11.0,17.0,51,-99.99,,,-99.99,,2013-05-28 15:11:00,
2013-05-28 08:21:00,57.0,37.0,-100.00,WNW,282,11.0,17.0,47,-99.99,,,-99.99,,2013-05-28 15:21:00,
2013-05-28 08:22:00,57.0,35.0,-100.00,WSW,250,11.0,19.0,43,-99.99,,,-99.99,,2013-05-28 15:22:00,
2013-05-28 08:32:00,57.0,38.0,-100.00,West,265,9.0,14.0,48,-99.99,,,-99.99,,2013-05-28 15:32:00,
2013-05-28 08:43:00,57.0,35.0,-100.00,West,270,10.0,18.0,43,-99.99,,,-99.99,,2013-05-28 15:43:00,
2013-05-28 08:52:00,57.0,37.0,-100.00,WSW,256,10.0,19.0,47,-99.99,,,-99.99,,2013-05-28 15:52:00,
2013-05-28 09:03:00,57.0,35.0,-100.00,WSW,250,11.0,19.0,43,-99.99,,,-99.99,,2013-05-28 16:03:00,
2013-05-28 09:12:00,57.0,35.0,-100.00,WSW,250,11.0,19.0,43,-99.99,,,-99.99,,2013-05-28 16:12:00,
2013-05-28 21:52:00,59.0,39.0,-100.00,WNW,301,9.0,15.0,47,-99.99,,,-99.99,,2013-05-29 04:52:00,
2013-05-28 22:02:00,56.0,40.0,-100.00,WNW,284,6.0,13.0,54,-99.99,,,-99.99,,2013-05-29 05:02:00,
2013-05-28 22:12:00,55.0,40.0,-100.00,SSW,212,3.0,6.0,57,-99.99,,,-99.99,,2013-05-29 05:12:00,
2013-05-28 22:22:00,53.0,40.0,-100.00,SSW,208,1.0,4.0,60,-99.99,,,-99.99,,2013-05-29 05:22:00,
2013-05-28 22:32:00,54.0,38.0,-100.00,East,85,4.0,7.0,55,-99.99,,,-99.99,,2013-05-29 05:32:00,
2013-05-28 22:42:00,54.0,38.0,-100.00,East,85,4.0,7.0,55,-99.99,,,-99.99,,2013-05-29 05:42:00,
2013-05-28 22:52:00,55.0,38.0,-100.00,East,99,4.0,8.0,53,-99.99,,,-99.99,,2013-05-29 05:52:00,
2013-05-28 23:01:00,55.0,38.0,-100.00,East,99,4.0,8.0,53,-99.99,,,-99.99,,2013-05-29 06:01:00,
2013-05-28 23:11:00,57.0,37.0,-100.00,ENE,76,7.0,12.0,47,-99.99,,,-99.99,,2013-05-29 06:11:00,
2013-05-28 23:21:00,56.0,37.0,-100.00,ENE,72,6.0,12.0,48,-99.99,,,-99.99,,2013-05-29 06:21:00,
2013-05-28 23:31:00,56.0,37.0,-100.00,NE,34,5.0,9.0,49,-99.99,,,-99.99,,2013-05-29 06:31:00,
2013-05-28 23:42:00,56.0,37.0,-100.00,NNE,30,5.0,9.0,49,-99.99,,,-99.99,,2013-05-29 06:42:00,
2013-05-28 23:51:00,56.0,38.0,-100.00,ENE,58,7.0,12.0,50,-99.99,,,-99.99,,2013-05-29 06:51:00,